Regional Weather Roundup
Issued by NWS

Home | Current Version | Previous Version | Graphics & Text | Print | Product List | Glossary On
Versions: 1 2 3 4 5 6 7 8 9 10 11 12 13 14 15 16 17 18 19 20 21 22 23 24 25 26 27
000
ASUS45 KSLC 270410
RWRUT

UTAH REGIONAL WEATHER ROUNDUP
NATIONAL WEATHER SERVICE SALT LAKE CITY UT
1000 PM MDT FRI AUG 26 2016

UTZ001>011-023>025-270500-

NORTHERN UTAH

CITY           SKY/WX    TMP DP  RH WIND       PRES   REMARKS
BRIGHAM CITY     N/A     70  28  20 NW3       30.02R
HILL AFB       CLEAR     67  29  24 NE6       30.03R
LOGAN          PTCLDY    62  36  37 W7        30.03R
OGDEN          CLEAR     65  30  27 S5        30.01R
PROVO AIRPORT  CLEAR     66  41  39 E7        30.05R
SALT LAKE CITY CLEAR     72  29  20 S7        30.00R
VERNAL         RAIN      58  50  75 S8        30.15S
WENDOVER       PTCLDY    68  19  15 NE3       30.01R
HEBER CITY     PTCLDY    54  32  43 CALM      30.10R
WEST JORDAN    CLEAR     67  27  22 SW9       30.04R

$$

UTZ012>022-026-027-270500-

SOUTHERN/CENTRAL UTAH

CITY           SKY/WX    TMP DP  RH WIND       PRES   REMARKS
BLANDING       CLOUDY    66  48  52 W6        30.27R
BRYCE CANYON   CLOUDY    48  43  82 N14       30.33R
CEDAR CITY     MOCLDY    64  42  44 NE22G30   30.16R
MILFORD        CLOUDY    68  45  43 SW15      30.10R
MOAB/CYNLANDS  CLOUDY    71  41  33 W12       30.09R
PRICE          CLOUDY    60  46  59 E7        30.17R
ST GEORGE      CLOUDY    79  50  36 SE13      29.98R

$$

REGIONAL REPORTS     COLORADO/ARIZONA

CITY           SKY/WX    TMP DP  RH WIND       PRES   REMARKS
CRAIG, CO      CLOUDY    54  46  74 VRB5      30.21R
GRAND JUNCTION LGT RAIN  63  49  60 N17       30.16R
RIFLE          LGT RAIN  60  48  64 NW17      30.24R
MONTROSE       CLOUDY    62  45  53 SE8       30.18R
CORTEZ         CLOUDY    59  52  77 NE6       30.19R
PAGE, AZ       CLOUDY    69  52  54 N7        30.12R
GRAND CANYON   CLOUDY    55  52  89 N3        30.28R
KINGMAN        MOCLDY    74  53  48 SE9       30.01R
FLAGSTAFF      PTCLDY    50  49  96 CALM      30.29R

$$

REGIONAL REPORTS    NEVADA/IDAHO/WYOMING

CITY           SKY/WX    TMP DP  RH WIND       PRES   REMARKS
LAS VEGAS, NV  CLOUDY    86  46  24 SW12      29.87R
ELY            CLOUDY    68  28  22 S13       30.14R
ELKO           CLEAR     63  20  19 CALM      30.04R
POCATELLO, ID  CLEAR     59  27  29 S10       30.02R
BURLEY         CLEAR     55  44  66 S7        29.98R
EVANSTON, WY   CLEAR     56  19  23 W14       30.17R
ROCK SPRINGS   CLOUDY    57  34  41 S6        30.15R

$$




USA.gov is the U.S. government's official web portal to all federal, state and local government web resources and services.